Regional Weather Roundup
Issued by NWS Kansas City/Pleasant Hill, MO

Home | Current Version | Previous Version | Graphics & Text | Print | Product List | Glossary Off
Versions: 1 2 3 4 5 6 7 8 9 10 11 12 13 14 15 16 17 18 19 20 21 22 23 24 25 26 27 28 29 30 31 32 33 34 35 36 37 38 39 40 41 42 43 44 45 46 47 48 49 50

000
ASUS43 KEAX 280504
RWREAX

WEATHER ROUNDUP FOR EASTERN KANSAS AND NORTHWEST MISSOURI
NATIONAL WEATHER SERVICE KANSAS CITY/PLEASANT HILL MO
1200 AM CDT THU AUG 28 2014

KSZ040-057-103>105-MOZ028-029-037-043-280600-
...KANSAS CITY METROPOLITAN AREA...

CITY           SKY/WX    TMP DP  RH WIND       PRES   REMARKS
K.C. INTL      CLOUDY    77  71  82 E7        30.04F
K.C. DOWNTOWN  CLOUDY    80  72  76 E8        30.02F
LEES SUMMIT    MOCLDY    77  72  84 E6        30.05S
OLATHE - IXD   CLOUDY    77  73  87 E5        30.04S
OLATHE - OJC   CLOUDY    78  73  84 E8        30.03F
LAWRENCE       MOCLDY    79  73  82 E7        30.02F

$$

MOZ001>008-011>017-020>025-030>033-038>040-044>046-053-054-280600-
...NORTHERN AND CENTRAL MISSOURI...

CITY           SKY/WX    TMP DP  RH WIND       PRES   REMARKS
ST. JOSEPH     MOCLDY    74  70  87 E6        30.04S
MOSBY          CLOUDY    75  70  83 CALM      30.03F
WHITEMAN AFB   NOT AVBL
CLINTON        PTCLDY    79  73  83 CALM      30.03F
SEDALIA        PTCLDY    75  68  78 SE6       30.05F
WARSAW         NOT AVBL
MARSHALL       MOCLDY    77  72  83 E5        30.05F
CHILLICOTHE      N/A     74  70  87 NE5       30.07S
MOBERLY        PTCLDY    72  66  83 CALM      30.08S
KIRKSVILLE     MOCLDY    72  70  93 NE5       30.09S

$$

MOZ041-047>049-056>058-063>065-088>090-097-280600-
...EASTERN AND SOUTHERN MISSOURI...

CITY           SKY/WX    TMP DP  RH WIND       PRES   REMARKS
ST. LOUIS INTL MOCLDY    75  71  87 SE5       30.06F
SPIRIT OF STL  MOCLDY    71  70  96 CALM      30.05S FOG
COLUMBIA       PTCLDY    71  68  90 SE7       30.06F
JEFFERSON CITY CLEAR     72  69  90 CALM      30.05F
MEXICO         CLEAR    N/A N/A N/A CALM      30.07S
ROLLA          CLEAR     72  67  84 SE9       30.06F
LEBANON        CLEAR     77  68  73 SE5       30.08F
OSAGE BEACH    CLEAR     72  66  83 E3        30.06F
SPRINGFIELD    PTCLDY    78  68  71 S8        30.05F
BRANSON        CLOUDY    77  68  73 CALM      30.09S
JOPLIN         CLEAR     78  68  71 SE6       30.03F
WEST PLAINS    MOCLDY    71  67  87 CALM      30.09F

$$

IAZ060-094-KSZ022-034>040-054-083-096-NEZ052-066-093-280600-
...KANSAS...SOUTHEAST NEBRASKA AND IOWA...

CITY           SKY/WX    TMP DP  RH WIND       PRES   REMARKS
TOPEKA         MOCLDY    79  75  87 E5        30.01F
MANHATTAN      CLOUDY    79  70  74 E6        29.98F
EMPORIA        MOCLDY    79  69  71 SE12      30.01S
CHANUTE        CLOUDY    79  67  66 SE9       30.02F
WICHITA        CLOUDY    82  64  54 S12       29.98S
OMAHA          LGT RAIN  72  69  90 E9        30.05F
LINCOLN        LGT RAIN  73  70  90 E6        30.05S
FALLS CITY     MOCLDY    72  69  90 E7        30.02F
LAMONI         CLOUDY    71  69  93 CALM      30.08S
DES MOINES     CLOUDY    72  67  84 E6        30.07F

$$




USA.gov is the U.S. government's official web portal to all federal, state and local government web resources and services.